Regional Weather Roundup
Issued by NWS

Home | Current Version | Previous Version | Text Only | Print | Product List | Glossary On
Versions: 1 2 3 4 5 6 7 8 9 10 11 12 13 14 15 16 17 18 19 20 21 22 23 24 25 26 27 28 29 30 31 32 33 34 35 36 37 38 39 40 41 42 43 44 45 46 47 48 49 50
000
ASUS43 KDTX 162301
RWRMI
MICHIGAN HOURLY REGIONAL WEATHER ROUNDUP
NATIONAL WEATHER SERVICE DETROIT/PONTIAC MI
600 PM EST SAT DEC 16 2017

NOTE: "FAIR" INDICATES FEW OR NO CLOUDS BELOW 12,000 FEET WITH NO
SIGNIFICANT WEATHER AND/OR OBSTRUCTION TO VISIBILITY.

MIZ047>049-052>055-059>063-066>070-074>076-081>083-170000-
SOUTHEAST LOWER MICHIGAN

CITY           SKY/WX    TMP DP  RH WIND       PRES   REMARKS
ADRIAN         CLEAR     32  26  78 E5        30.05R WCI  27
ALMA           CLOUDY    24  22  91 NE9       30.10R WCI  14
ANN ARBOR      CLOUDY    28  22  78 NE8       30.07R WCI  20
BAD AXE        CLOUDY    22  17  81 NE6       30.13R WCI  15
CARO           CLOUDY    25  20  82 NE5       30.11R WCI  19
DETROIT CITY   CLOUDY    27  22  81 NE7       30.10R WCI  19
DETROIT        CLOUDY    30  22  72 NE8       30.10R WCI  22
FLINT          CLOUDY    25  19  78 E8        30.09R WCI  16
GROSSE ILE     CLOUDY    28  24  84 NE9       30.08R WCI  19
HILLSDALE      CLEAR     30  23  74 CALM      30.01R
HOWELL         CLOUDY    27  23  84 E6        30.06R WCI  21

CITY           SKY/WX    TMP DP  RH WIND       PRES   REMARKS
JACKSON        CLOUDY    33  26  75 NE8       30.03R WCI  26
LAMBERTVILLE   CLEAR     29  26  87 E5        30.07R WCI  24
LANSING        CLOUDY    26  20  77 E10       30.06R WCI  16
LAPEER         CLOUDY    25  21  84 CALM      30.10R
MASON          MOCLDY    27  20  75 NE7       30.05R WCI  19
MONROE         CLEAR     28  22  81 NE9       30.07R WCI  19
MT. CLEMENS    FLURRIES  26  24  93 NE6       30.09R WCI  20
PONTIAC        CLOUDY    25  20  81 E7        30.07R WCI  17
PORT HOPE        N/A     24  17  74 NE10      30.14R WCI  14
PORT HURON     CLOUDY    23  16  74 NE6       30.13R WCI  16
TRI CITIES     CLOUDY    25  22  88 E8        30.12R WCI  16
MIDLAND        CLOUDY    25  20  82 E7        30.11R WCI  17
TROY           CLOUDY    27  22  80 NE8       30.11R WCI  19
SAGINAW HB     CLOUDY    25  21  86 NE6       30.12R WCI  18
$$
MIZ043>046-050>051-056>058-064>065-071>073-077>080-170000-
SOUTHWEST LOWER MICHIGAN

CITY           SKY/WX    TMP DP  RH WIND       PRES   REMARKS
BATTLE CREEK   CLOUDY    33  26  75 E7        30.02R WCI  27
BENTON HARBOR  CLEAR     36  25  64 E3        30.00R
BIG RAPIDS     CLOUDY    23  18  81 E6        30.06R WCI  15
COLDWATER      CLEAR     33  26  76 CALM      30.01R
HOLLAND        MOCLDY    27  22  81 E7        30.04R WCI  19
GRAND RAPIDS   CLOUDY    24  19  81 E10       30.05R WCI  14
IONIA          CLOUDY    25  20  80 NE10      30.06R WCI  15
KALAMAZOO      CLEAR     34  25  69 SE3       30.02R
LUDINGTON      CLOUDY    26  19  76 E10       30.05R WCI  15
MARSHALL       CLOUDY    32  26  80 NE3       30.02R
MOUNT PLEASANT CLOUDY    25  19  77 E6        30.09R WCI  18
MUSKEGON       CLOUDY    27  19  72 E13       30.04R WCI  16
SOUTH HAVEN    CLEAR     36  28  72 NE3       30.00R
$$
MIZ016>042-170000-
NORTHERN LOWER MICHIGAN

CITY           SKY/WX    TMP DP  RH WIND       PRES   REMARKS
ALPENA         CLOUDY    12   9  87 N6        30.17R WCI   3
BEAVER ISLAND  MOCLDY    15  10  80 NE7       30.16R WCI   5
BELLAIRE       CLOUDY    18  13  82 NE3       30.14R
CADILLAC       CLOUDY    21  16  79 E7        30.03R WCI  12
CHARLEVOIX     CLOUDY    15   9  79 E9        30.18R WCI   3
FRANKFORT      CLOUDY    26  17  71 NE7       30.10R WCI  18
GAYLORD        CLOUDY    12   7  80 NE5       30.08R WCI   4
GRAYLING       CLOUDY    16  10  77 E6        30.10R WCI   8
HARBOR SPRINGS CLOUDY    10   6  82 NE8       30.15R WCI  -1
HOUGHTON LAKE  CLOUDY    20  12  71 E9        30.09R WCI   9
MANISTEE       CLOUDY    25  19  78 E9        30.07R WCI  15
OSCODA         FLURRIES  17  10  76 N6        30.15R WCI   8
PELLSTON       CLOUDY    10   6  84 NE5       30.18R WCI   2
ROGERS CITY    FLURRIES  13   9  83 CALM      30.18R
TRAVERSE CITY  CLOUDY    22  14  71 NE8       30.11R WCI  12
$$
MIZ007>008-015-170000-
EASTERN UPPER MICHIGAN

CITY           SKY/WX    TMP DP  RH WIND       PRES   REMARKS
KINROSS        CLOUDY    -4  -9  79 NE3       30.18R
MACKINAC ISLAN CLOUDY     8  -2  64 NE5       30.17S WCI  -1
NEWBERRY       CLOUDY     6   4  91 NE6       30.16R WCI  -5
S. S. MARIE    CLOUDY     1  -9  62 S3        30.19R
MUNISING         N/A     15  10  80 E10       30.16R WCI   2
$$
MIZ004>006-011>014-085-170000-
CENTRAL UPPER MICHIGAN

CITY           SKY/WX    TMP DP  RH WIND       PRES   REMARKS
MANISTIQUE     MOCLDY    12   4  72 NE9       30.16R WCI  -1
ESCANABA       CLOUDY    18  12  77 E7        30.15R WCI   9
MENOMINEE      FLURRIES  26  21  81 E13       30.10R WCI  15
SAWYER-GWINN   CLOUDY    18   9  68 E5        30.09R WCI  11
$$
MIZ001>003-009>011-084-170000-
WESTERN UPPER MICHIGAN

CITY           SKY/WX    TMP DP  RH WIND       PRES   REMARKS
IRON MOUNTAIN  CLOUDY    19  12  74 E3        30.07R
HOUGHTON       CLOUDY    19  14  81 E7        30.07R WCI  10
COPPER HARBOR    N/A     19  13  77 VRB5      30.13R WCI  12
IRONWOOD       FLURRIES  19  13  77 SE6       30.04R WCI  11
$$

ABBREVIATIONS USED IN REMARKS
   TC - TEMPERATURE IN CELSIUS
  WCI - WIND CHILL INDEX
   HX - HEAT INDEX
  VSB - VISIBILITY





USA.gov is the U.S. government's official web portal to all federal, state and local government web resources and services.